Tracking 19709 objects as of 18-Jun-2019
HD Live streaming from Space Station
objects crossing your sky now

COSMOS 894

Track COSMOS 894 now!
10-day predictions
COSMOS 894 is classified as:


NORAD ID: 9846
Int'l Code: 1977-013A
Perigee: 969.7 km
Apogee: 1,015.4 km
Inclination: 82.9 °
Period: 104.8 minutes
Semi major axis: 7363 km
RCS: 3.5762 m2 (large)
Launch date: February 21, 1977
Source: Commonwealth of Independent States (former USSR) (CIS)
Launch site: PLESETSK MISSILE AND SPACE COMPLEX (PKMTR)
aabbcc
Your satellite tracking list
Your tracking list is empty




NASA's NSSDC Master Catalog

Two Line Element Set (TLE):
1  9846U 77013A   19168.60011970 +.00000037 +00000-0 +22555-4 0  9997
2  9846 082.9436 187.6123 0031067 127.7418 350.8495 13.73950983121080
Source of the keplerian elements: AFSPC